カタログに戻る

CZ-6A DEB

運用中SSO
NORAD 54960·DEBRIS·🇨🇳 China

打ち上げ Nov 11, 2022 から Taiyuan Satellite Launch Center

Loading…

次のパス (今後24時間)

TLE

最新Source: Space-Track

元期: Sep 14, 2026, 10:40 UTC

1 54960U 22151SZ  26257.44510187  .00000001  00000-0  25169-4 0  9995
2 54960  98.8395 251.9516 0048537  92.9284 267.7442 14.09491860196244

AllMySatでCZ-6A DEBをリアルタイム追跡

Download on the App Store